Weather History for White Plains, NY

Change the Weather History Date:

Saturday, June 23, 2012

  Actual Average Record
Temperature  
Mean Temperature 74 °F -  
Max Temperature 82 °F 78 °F 90 °F (1983)
Min Temperature 66 °F 60 °F 49 °F (1992)
Cooling Degree Days 9    
Growing Degree Days 24 (Base 50)    
Moisture  
Dew Point 61 °F    
Average Humidity 67    
Maximum Humidity 96    
Minimum Humidity 38    
Precipitation  
Precipitation 0.00 in - - ()
Sea Level Pressure  
Sea Level Pressure 29.87 in    
Wind  
Wind Speed 5 mph (NW)    
Max Wind Speed 14 mph    
Max Gust Speed 18 mph    
Visibility 8 miles    
Events Thunderstorm    
Averages and records for this station are not official NWS values.
T = Trace of Precipitation, MM = Missing Value Source: NWS Daily Summary

Daily Weather History Graph

Daily Weather History Graph

Search for Another Location

Airport:

Trip Planner

Search our weather history database for the weather conditions in past years. The results will help you decide how hot, cold, wet, or windy it might be!

Date:

Astronomy

Jun. 23, 2012 Rise Set
Actual Time 5:23 AM EDT 8:31 PM EDT
Civil Twilight 4:49 AM EDT 9:04 PM EDT
Nautical Twilight 4:06 AM EDT 9:47 PM EDT
Astronomical Twilight 3:15 AM EDT 10:39 PM EDT
Moon 9:24 AM EDT (6/23) 10:55 PM EDT (6/23)
Length of Visible Light 16h 15m
Length of Day
15h 07m
Waxing Crescent, 16% of the Moon is Illuminated
Jun 23
Waxing Crescent
Jun 26
First Quarter
Jul 3
Full
Jul 10
Last Quarter
Jul 19
New

Hourly Weather History & Observations

Time (EDT) Temp. Heat Index Dew Point Humidity Pressure Visibility Wind Dir Wind Speed Gust Speed Precip Events Conditions
12:56 AM 69.1 °F - 66.9 °F 93% 29.80 in 5.0 mi Calm Calm - N/A   Mostly Cloudy
1:56 AM 69.1 °F - 68.0 °F 96% 29.82 in 3.0 mi Calm Calm - N/A   Overcast
2:56 AM 69.1 °F - 68.0 °F 96% 29.81 in 3.0 mi Calm Calm - 0.00 in   Overcast
3:17 AM 69.8 °F - 68.0 °F 94% 29.82 in 4.0 mi NNW 5.8 mph - N/A Thunderstorm Overcast
3:56 AM 70.0 °F - 68.0 °F 93% 29.82 in 4.0 mi Calm Calm - 0.00 in   Overcast
4:56 AM 69.1 °F - 66.9 °F 93% 29.82 in 2.0 mi NE 5.8 mph - N/A   Mostly Cloudy
5:31 AM 69.8 °F - 64.4 °F 83% 29.84 in 7.0 mi Calm Calm - N/A   Scattered Clouds
5:56 AM 68.0 °F - 64.0 °F 87% 29.83 in 10.0 mi NNW 3.5 mph - N/A   Partly Cloudy
6:56 AM 69.1 °F - 66.0 °F 90% 29.84 in 10.0 mi NW 9.2 mph - N/A   Scattered Clouds
7:56 AM 70.0 °F - 64.0 °F 81% 29.85 in 10.0 mi NNW 12.7 mph - N/A   Clear
8:56 AM 71.1 °F - 63.0 °F 75% 29.86 in 10.0 mi NW 12.7 mph - N/A   Clear
9:56 AM 73.9 °F - 63.0 °F 68% 29.86 in 10.0 mi NW 10.4 mph - N/A   Clear
10:56 AM 77.0 °F - 63.0 °F 62% 29.87 in 10.0 mi NW 9.2 mph - N/A   Clear
11:56 AM 78.1 °F - 62.1 °F 58% 29.87 in 10.0 mi WNW 9.2 mph - N/A   Partly Cloudy
12:56 PM 80.1 °F 80.6 °F 57.9 °F 47% 29.87 in 10.0 mi WNW 9.2 mph - N/A   Scattered Clouds
1:56 PM 81.0 °F 80.8 °F 55.9 °F 42% 29.87 in 10.0 mi WNW 12.7 mph - N/A   Scattered Clouds
2:56 PM 82.0 °F 81.3 °F 54.0 °F 38% 29.87 in 10.0 mi WNW 13.8 mph - N/A   Scattered Clouds
3:56 PM 81.0 °F 80.8 °F 55.9 °F 42% 29.87 in 10.0 mi WNW 12.7 mph - N/A   Scattered Clouds
4:56 PM 82.0 °F 81.4 °F 55.0 °F 39% 29.88 in 10.0 mi NW 13.8 mph 18.4 mph N/A   Scattered Clouds
5:56 PM 81.0 °F 80.4 °F 53.1 °F 38% 29.88 in 10.0 mi WNW 13.8 mph 17.3 mph N/A   Partly Cloudy
6:56 PM 80.1 °F 79.9 °F 53.1 °F 39% 29.88 in 10.0 mi WNW 9.2 mph - N/A   Partly Cloudy
7:56 PM 75.0 °F - 55.0 °F 50% 29.91 in 10.0 mi NNW 8.1 mph - N/A   Partly Cloudy
8:56 PM 70.0 °F - 55.0 °F 59% 29.93 in 10.0 mi NW 4.6 mph - N/A   Clear
9:56 PM 70.0 °F - 55.0 °F 59% 29.95 in 10.0 mi NW 3.5 mph - N/A   Clear
10:56 PM 66.0 °F - 55.0 °F 68% 29.97 in 10.0 mi NW 5.8 mph - N/A   Clear
11:56 PM 68.0 °F - 54.0 °F 61% 29.97 in 10.0 mi North 8.1 mph - N/A   Clear